User: anonymous   Login
Location: Lawrence
(38.9720°N, 95.2350°W)
Time: 00:38:02
(UTC-05:00)
Language:

ALOS - Orbit

View from above orbital plane
View from above orbital plane
View from above satellite
View from above satellite

Ground track
Ground track

The orbit data is extracted from the following two-line orbital elements,

1 28931U 06002A   15152.53643646  .00000468  00000-0  10249-3 0  9999
2 28931 097.9327 202.5646 0002268 117.6081 242.5352 14.61868234498354
Epoch (UTC): 01 June 2015 12:52:28
Eccentricity: 0.0002268
inclination: 97.9327°
perigee height: 685 km
apogee height: 689 km
right ascension of ascending node: 202.5646°
argument of perigee: 117.6081°
revolutions per day: 14.61868234
mean anomaly at epoch: 242.5352°
orbit number at epoch: 49835

The dashed part of the orbit path shows where the satellite is in the earth's shadow,  

DLR